This is the latest recevied weather packets stored in our database for station/object NC4J. If no packets are shown the sender has not sent any weather packets the latest 10 day(s).
| Time | Temp. | Humidity | Pressure | Rain* | Wind** | Luminosity | Snow |
|---|---|---|---|---|---|---|---|
| 1778027534 | 19.44° C | 46% | 1015.1 hPa | 0 mm | - | 0 W/m² | - |
| 1778027230 | 19.44° C | 44% | 1014.9 hPa | 0 mm | - | 0 W/m² | - |
| 1778026926 | 19.44° C | 45% | 1014.8 hPa | 0 mm | - | 1 W/m² | - |
| 1778026622 | 19.44° C | 44% | 1014.9 hPa | 0 mm | - | 1 W/m² | - |
| 1778026320 | 19.44° C | 45% | 1014.9 hPa | 0 mm | - | 2 W/m² | - |
| 1778026016 | 19.44° C | 44% | 1015 hPa | 0 mm | - | 3 W/m² | - |
| 1778025714 | 20° C | 46% | 1015.1 hPa | 0 mm | - | 7 W/m² | - |
| 1778025412 | 20° C | 43% | 1014.9 hPa | 0 mm | - | 7 W/m² | - |
| 1778025109 | 20.56° C | 42% | 1014.9 hPa | 0 mm | - | 8 W/m² | - |
| 1778024805 | 20° C | 40% | 1015.2 hPa | 0 mm | - | 10 W/m² | - |
| 1778024502 | 20° C | 44% | 1015.1 hPa | 0 mm | - | 14 W/m² | - |
| 1778024199 | 20.56° C | 41% | 1014.8 hPa | 0 mm | - | 15 W/m² | - |
| 1778023897 | 20.56° C | 41% | 1014.8 hPa | 0 mm | - | 15 W/m² | - |
| 1778023594 | 21.11° C | 41% | 1015 hPa | 0 mm | - | 15 W/m² | - |
| 1778023292 | 21.11° C | 42% | 1014.9 hPa | 0 mm | - | 30 W/m² | - |
| 1778022988 | 21.67° C | 40% | 1014.8 hPa | 0 mm | - | 47 W/m² | - |
| 1778022687 | 21.67° C | 38% | 1015 hPa | 0 mm | - | 56 W/m² | - |
| 1778022385 | 21.11° C | 38% | 1015 hPa | 0 mm | - | 56 W/m² | - |
| 1778022081 | 21.11° C | 42% | 1014.9 hPa | 0 mm | - | 43 W/m² | - |
| 1778021778 | 21.11° C | 41% | 1015 hPa | 0 mm | - | 29 W/m² | - |
| 1778021474 | 20.56° C | 43% | 1015.1 hPa | 0 mm | - | 52 W/m² | - |
| 1778021170 | 21.11° C | 42% | 1014.9 hPa | 0 mm | - | 25 W/m² | - |
| 1778020868 | 21.67° C | 41% | 1015 hPa | 0 mm | - | 24 W/m² | - |
| 1778020565 | 21.67° C | 38% | 1014.8 hPa | 0 mm | - | 20 W/m² | - |
| 1778020261 | 21.67° C | 39% | 1014.9 hPa | 0 mm | - | 56 W/m² | - |
* Rain latest hour (hover to see other rain measurements)
** Current wind speed in m/s (hover to see current wind gust speed)